Weather in Malaya Remizenka

Russia / Orenburg Oblast     52°09′39″N   52°45′19″E
temp.,
°C
wind,
m/s
gust,
m/s
humid.,
%
clouds,
%
prec.,
mm/h
press.,
hPa
HPBL,
m
25 february, thu
thu2523:00−25nnw7149321 0.0 1032327
02:00−27nnw489718 0.0 1033113
05:00−28nnw46989 0.0 103485
08:00−29nw34980 0.0 103547
11:00−25nnw11930 0.0 103566
14:00−21ssw338648 0.0 1034222
17:00−21ssw579174 0.0 1033249
20:00−21ssw61092100 0.0 1030329
26 february, fri
fri2623:00−20s71298100 0.5 1028361
02:00−19s81396100 0.9 1025509
05:00−17sse81395100 1.8 1023565
08:00−15sse71294100 0.6 1020551
11:00−14sse71193100 1.2 1020517
14:00−13sse71091100 0.3 1019525
17:00−12se6991100 0.4 1018507
20:00−13se5109392 0.1 1017315
27 february, sat
sat2723:00−12sse6119495 0.1 1015302
02:00−10sse81494100 0.3 1010355
05:00−7sse101694100 2.4 1005429
08:00−3s81296100 3.3 1002295
11:00+1wsw510100100 3.8 1001286
14:00+1wsw58100100 0.0 1001373
17:000wsw599999 0.1 1002451
20:000sw4898100 0.1 1002396
28 february, sun
sun2823:000sw4798100 0.3 1003365
02:00−1sw5795100 0.1 1002409
05:00−1sw4797100 0.3 1002316
08:00−3sw3697100 0.1 1002145
11:00−2sw359799 0.3 1003228
14:00−1sw479592 0.3 1004446
17:00−1sw469796 0.5 1005390
20:00−2sw3798100 0.7 1006253
1 march, mon
mon123:00−4wnw349798 1.1 100889
02:00−11nw349791 0.1 100966
05:00−13nw459794 0.1 1011120
08:00−14nw369799 0.1 1013106
11:00−12nnw579597 0.1 1014264
14:00−11nnw5895100 0.1 1016322
17:00−11nnw5894100 0.1 1018387
20:00−15nnw4997100 0.1 1020207